Location: Phoenix
(33.4480°N, 112.0730°W)
Time: 10:14:19
(UTC-07:00)

Cosmos 1470 Rocket - Visible Passes

Search period start: 24 May 2015 00:00
Search period end: 03 June 2015 00:00
Orbit: 605 x 634 km, 82.5° (Epoch: 23 May)

Date Brightness Start Highest point End Pass type
(mag) Time Alt. Az. Time Alt. Az. Time Alt. Az.
24 May 5.4 02:15:32 25° NNW 02:15:32 25° NNW 02:17:40 10° N visible
25 May 6.2 00:55:52 15° NE 00:55:52 15° NE 00:56:56 10° NE visible
25 May 5.8 02:33:02 17° NW 02:33:02 17° NW 02:34:34 10° NNW visible
26 May 5.9 01:13:21 22° NNE 01:13:21 22° NNE 01:15:04 10° NNE visible
27 May 5.6 01:30:49 25° N 01:30:49 25° N 01:32:45 10° N visible
28 May 5.7 01:48:16 22° NNW 01:48:16 22° NNW 01:50:04 10° N visible
29 May 6.3 00:28:33 15° NE 00:28:33 15° NE 00:29:29 10° NNE visible
29 May 6.0 02:05:43 15° NW 02:05:43 15° NW 02:06:54 10° NNW visible
30 May 5.9 00:45:59 21° NNE 00:45:59 21° NNE 00:47:34 10° NNE visible
31 May 5.8 01:03:24 24° N 01:03:24 24° N 01:05:11 10° N visible
01 Jun 5.8 01:20:49 20° NNW 01:20:49 20° NNW 01:22:28 10° NNW visible
02 Jun 6.2 00:01:03 15° NE 00:01:03 15° NE 00:02:02 10° NNE visible
02 Jun 6.1 01:38:13 14° NW 01:38:13 14° NW 01:39:13 10° NNW visible
